カタログに戻る

STARLINK-38150

運用中通信SSO
NORAD 100167·PAYLOAD·🇺🇸 United States

打ち上げ Jul 25, 2026 から Vandenberg Space Force Base

Loading…

次のパス (今後24時間)

TLE

最新Source: Space-Track

元期: Sep 14, 2026, 22:56 UTC

1 A0167U 26171V   26257.95604812  .00009173  00000-0  28610-3 0  9998
2 A0167  97.2842 290.5877 0001309  83.2328 276.9064 15.33447238  8052

AllMySatでSTARLINK-38150をリアルタイム追跡

Download on the App Store